This is the latest recevied weather packets stored in our database for station/object F5SHG-3. If no packets are shown the sender has not sent any weather packets the latest 10 day(s).
| Time | Temp. | Humidity | Pressure | Rain* | Wind** | Luminosity | Snow |
|---|---|---|---|---|---|---|---|
| 1777734910 | 22.22° C | 30% | 1017.8 hPa | - | - | - | - |
| 1777734010 | 21.11° C | 32% | 1018.1 hPa | - | - | - | - |
| 1777733110 | 21.11° C | 32% | 1018.3 hPa | - | - | - | - |
| 1777732210 | 21.67° C | 31% | 1018.4 hPa | - | - | - | - |
| 1777731310 | 21.67° C | 30% | 1018.6 hPa | - | - | - | - |
| 1777730410 | 21.67° C | 30% | 1018.8 hPa | - | - | - | - |
| 1777729510 | 22.78° C | 29% | 1018.8 hPa | - | - | - | - |
| 1777728610 | 22.78° C | 28% | 1018.9 hPa | - | - | - | - |
| 1777727710 | 22.78° C | 29% | 1018.9 hPa | - | - | - | - |
| 1777726809 | 23.33° C | 28% | 1019 hPa | - | - | - | - |
| 1777725913 | 23.89° C | 26% | 1019 hPa | - | - | - | - |
| 1777725013 | 24.44° C | 26% | 1018.9 hPa | - | - | - | - |
| 1777724113 | 23.33° C | 27% | 1019.1 hPa | - | - | - | - |
| 1777723213 | 22.78° C | 28% | 1019.2 hPa | - | - | - | - |
| 1777722313 | 22.78° C | 27% | 1019.3 hPa | - | - | - | - |
| 1777721412 | 23.33° C | 28% | 1019.4 hPa | - | - | - | - |
| 1777720511 | 23.33° C | 27% | 1019.6 hPa | - | - | - | - |
| 1777719611 | 22.78° C | 28% | 1019.6 hPa | - | - | - | - |
| 1777718711 | 22.78° C | 26% | 1019.6 hPa | - | - | - | - |
| 1777717811 | 22.78° C | 26% | 1019.7 hPa | - | - | - | - |
| 1777716011 | 22.78° C | 27% | 1020.1 hPa | - | - | - | - |
| 1777715111 | 22.22° C | 25% | 1020 hPa | - | - | - | - |
| 1777714211 | 21.11° C | 27% | 1020.1 hPa | - | - | - | - |
| 1777713310 | 20.56° C | 27% | 1020 hPa | - | - | - | - |
| 1777712410 | 19.44° C | 29% | 1020.1 hPa | - | - | - | - |
* Rain since midnight (hover to see other rain measurements)
** Current wind speed in m/s (hover to see current wind gust speed)